CDT,Max TemperatureF,Mean TemperatureF,Min TemperatureF,Max Dew PointF,MeanDew PointF,Min DewpointF,Max Humidity, Mean Humidity, Min Humidity, Max Sea Level PressureIn, Mean Sea Level PressureIn, Min Sea Level PressureIn, Max VisibilityMiles, Mean VisibilityMiles, Min VisibilityMiles, Max Wind SpeedMPH, Mean Wind SpeedMPH, Max Gust SpeedMPH,PrecipitationIn, CloudCover, Events, WindDirDegrees
2013-7-1,81,70,58,58,53,48,84,57,31,30.09,30.05,30.01,10,10,10,20,10,26,0.00,0,,18
2013-7-2,80,70,59,60,55,51,88,61,36,30.11,30.07,30.05,10,10,10,16,8,22,0.00,1,,37
2013-7-3,81,70,59,63,58,53,93,67,38,30.11,30.08,30.04,10,10,10,5,1,,0.00,1,,114
2013-7-4,86,74,63,65,61,53,93,66,33,30.11,30.07,30.03,10,10,5,7,4,,0.00,1,,182
2013-7-5,86,74,63,67,63,60,93,67,41,30.10,30.06,30.02,10,9,4,10,5,,0.00,0,,157
2013-7-6,88,75,62,69,65,61,95,70,40,30.07,30.03,29.98,10,9,3,12,5,17,0.00,0,,162
2013-7-7,90,79,68,71,68,65,91,68,48,30.03,30.01,29.98,10,10,7,13,6,16,0.00,1,,193
2013-7-8,87,80,74,77,72,68,94,76,62,30.07,30.03,30.00,10,9,5,15,8,20,0.00,5,Rain-Thunderstorm,216
2013-7-9,91,84,77,77,75,72,90,74,56,30.04,29.99,29.91,10,10,10,10,5,,0.00,3,Rain,210
2013-7-10,88,77,65,75,67,61,90,64,43,30.06,29.97,29.88,10,10,10,15,7,23,0.00,2,,327
2013-7-11,83,71,59,64,60,54,93,68,37,30.13,30.10,30.06,10,10,7,9,3,,0.00,0,,45
2013-7-12,84,70,55,65,57,52,94,66,34,30.18,30.13,30.09,10,10,5,9,2,,0.00,0,,136
2013-7-13,84,70,57,65,60,55,93,68,40,30.17,30.12,30.08,10,10,10,10,3,,0.00,0,,114
2013-7-14,88,76,63,71,66,61,95,70,46,30.20,30.16,30.12,10,10,5,10,5,17,0.00,1,,116
2013-7-15,91,80,70,75,72,68,94,73,51,30.28,30.24,30.20,10,9,3,9,3,,0.00,1,,114
2013-7-16,91,80,71,76,73,70,95,78,55,30.33,30.30,30.26,10,9,2,7,2,,0.00,2,,159
2013-7-17,95,82,70,77,73,69,93,73,45,30.36,30.30,30.23,10,10,7,6,2,,0.00,1,,158
2013-7-18,94,84,73,75,73,71,94,70,48,30.25,30.14,30.02,10,10,7,8,3,,0.00,1,,217
2013-7-19,95,86,77,74,71,64,79,62,36,30.02,29.94,29.85,10,10,10,14,7,21,0.00,0,,231
2013-7-20,88,78,68,72,67,60,89,65,38,29.96,29.92,29.88,10,10,10,10,5,,0.00,1,,21
2013-7-21,82,74,65,74,69,63,95,87,68,29.96,29.93,29.88,10,10,4,8,2,,0.00,4,Rain-Thunderstorm,141
2013-7-22,88,77,66,75,71,65,98,82,58,29.90,29.86,29.80,10,6,0,17,2,29,0.00,4,Fog-Rain-Thunderstorm,229
2013-7-23,82,73,65,69,65,60,98,77,56,29.98,29.89,29.81,10,10,10,14,6,21,0.00,2,,332
2013-7-24,77,68,58,62,58,54,97,72,44,30.09,30.05,29.97,10,10,7,9,5,,0.00,1,,40
2013-7-25,82,68,54,64,58,53,94,70,44,30.14,30.10,30.07,10,10,10,7,1,,0.00,1,,171
2013-7-26,80,70,60,72,64,57,96,80,53,30.08,30.01,29.95,10,9,2,14,5,22,0.00,5,Rain-Thunderstorm,223
2013-7-27,71,62,52,58,52,46,93,71,43,30.04,30.01,29.98,10,10,10,20,8,28,0.00,3,,305
2013-7-28,76,62,50,58,52,49,94,69,41,30.09,30.03,30.00,10,10,10,17,6,23,0.00,1,,279
2013-7-29,79,64,50,65,57,49,95,72,43,30.19,30.15,30.09,10,10,10,6,1,,0.00,2,,157
2013-7-30,73,69,65,71,67,60,98,92,73,30.16,30.09,30.05,10,6,2,9,6,,0.00,8,Rain,121
2013-7-31,78,72,67,71,68,65,98,86,65,30.10,30.06,30.03,10,7,1,10,4,,0.00,6,,314